GW0795 Weather Reports


time (UTC)temp
F
wind
direction
speed
knots
gust
knots
rain 1hr
in
rain 24hr
in
rain mn
in
humidity
%
barometer
mb
20260507060503 51 178 1.7 5.2 0.00 0.00 0.00 89 1021.3
20260507060006 51 187 0.0 0.0 0.00 0.00 0.00 89 1021.2
20260507055504 51 188 0.0 2.6 0.00 0.00 0.00 89 1021.3
20260507055006 51 202 0.0 2.6 0.00 0.00 0.00 89 1021.3
20260507054504 51 192 0.0 4.3 0.00 0.00 0.00 89 1021.3
20260507054005 51 192 1.7 4.3 0.00 0.00 0.00 89 1021.2
20260507053504 51 177 0.9 3.5 0.00 0.00 0.00 89 1021.2
20260507053008 51 190 1.7 5.2 0.00 0.00 0.00 88 1021.3
20260507052504 52 217 1.7 5.2 0.00 0.00 0.00 88 1021.3
20260507052004 52 212 0.0 4.3 0.00 0.00 0.00 87 1021.3
20260507051508 52 199 0.0 5.2 0.00 0.00 0.00 87 1021.4
20260507051006 52 202 0.0 5.2 0.00 0.00 0.00 86 1021.3
20260507050503 52 211 0.0 2.6 0.00 0.00 0.00 86 1021.4
20260507050012 52 201 0.0 1.7 0.00 0.00 0.00 86 1021.4
20260507045504 52 196 0.0 5.2 0.00 0.00 0.00 85 1021.4
20260507045004 52 227 1.7 5.2 0.00 0.00 0.00 85 1021.5
20260507044509 53 209 0.0 5.2 0.00 0.00 0.00 85 1021.5
20260507044006 53 192 0.9 5.2 0.00 0.00 0.00 84 1021.4
20260507043504 53 309 0.0 2.6 0.00 0.00 0.00 84 1021.4
20260507043010 53 203 0.9 2.6 0.00 0.00 0.00 84 1021.4
20260507042505 53 217 0.0 2.6 0.00 0.00 0.00 83 1021.3
20260507042002 53 203 0.9 2.6 0.00 0.00 0.00 82 1021.3
20260507041508 53 218 0.0 1.7 0.00 0.00 0.00 82 1021.3
20260507041006 53 199 0.0 1.7 0.00 0.00 0.00 82 1021.3
20260507040506 53 199 0.0 0.9 0.00 0.00 0.00 82 1021.3
20260507040010 53 198 0.0 1.7 0.00 0.00 0.00 82 1021.3
20260507035508 53 198 0.0 1.7 0.00 0.00 0.00 82 1021.3
20260507035007 54 198 0.0 0.9 0.00 0.00 0.00 82 1021.1
20260507034521 54 212 0.0 0.0 0.00 0.00 0.00 82 1021.1
20260507034003 54 211 0.0 0.0 0.00 0.00 0.00 81 1021.1
20260507033507 54 165 0.0 1.7 0.00 0.00 0.00 81 1021.1
20260507033015 54 151 0.0 1.7 0.00 0.00 0.00 81 1021.1
20260507032509 54 102 0.0 1.7 0.00 0.00 0.00 81 1020.9
20260507032004 54 302 0.0 1.7 0.00 0.00 0.00 81 1020.8
20260507031507 54 292 0.0 1.7 0.00 0.00 0.00 80 1020.7
20260507031006 54 292 0.0 0.9 0.00 0.00 0.00 80 1020.7
20260507030509 54 263 0.0 0.9 0.00 0.00 0.00 80 1020.7
20260507030016 54 214 0.0 4.3 0.00 0.00 0.00 80 1020.7
20260507025505 54 215 0.0 4.3 0.00 0.00 0.00 79 1020.6
20260507025004 55 208 0.0 2.6 0.00 0.00 0.00 79 1020.8
20260507024519 55 236 0.9 2.6 0.00 0.00 0.00 79 1020.8
20260507024003 55 162 0.0 2.6 0.00 0.00 0.00 79 1020.7
20260507023503 55 133 0.0 1.7 0.00 0.00 0.00 79 1020.7
20260507023010 55 196 0.9 2.6 0.00 0.00 0.00 79 1020.6
20260507022507 55 125 0.0 7.0 0.00 0.00 0.00 78 1020.7
20260507022006 55 295 1.7 7.0 0.00 0.00 0.00 78 1020.6
20260507021513 55 141 0.0 1.7 0.00 0.00 0.00 78 1020.5
20260507021008 55 152 0.0 1.7 0.00 0.00 0.00 78 1020.5
20260507020505 55 190 0.0 1.7 0.00 0.00 0.00 78 1020.5
20260507020008 55 196 0.9 1.7 0.00 0.00 0.00 77 1020.6
20260507015504 56 242 0.9 1.7 0.00 0.00 0.00 78 1020.6
20260507015008 56 229 0.0 1.7 0.00 0.00 0.00 77 1020.5
20260507014513 56 86 0.0 3.5 0.00 0.00 0.00 77 1020.5
20260507014004 56 197 0.0 3.5 0.00 0.00 0.00 77 1020.6
20260507013503 56 205 0.0 3.5 0.00 0.00 0.00 77 1020.6
20260507013020 56 213 0.0 3.5 0.00 0.00 0.00 77 1020.5
20260507012507 56 226 1.7 6.1 0.00 0.00 0.00 76 1020.6
20260507012008 56 189 2.6 6.1 0.00 0.00 0.00 76 1020.6
20260507011525 56 175 1.7 4.3 0.00 0.00 0.00 75 1020.6
20260507011006 56 224 0.9 1.7 0.00 0.00 0.00 76 1020.5
20260507010507 56 143 0.0 3.5 0.00 0.00 0.00 76 1020.6
20260507010015 56 85 0.9 4.3 0.00 0.00 0.00 77 1020.6
20260507005505 56 197 0.9 4.3 0.00 0.00 0.00 76 1020.7
20260507005010 56 193 0.9 4.3 0.00 0.00 0.00 76 1020.7
20260507004512 56 134 0.9 3.5 0.00 0.00 0.00 76 1020.7
20260507004006 57 288 0.9 3.5 0.00 0.00 0.00 75 1020.7
20260507003508 57 150 0.9 2.6 0.00 0.00 0.00 75 1020.7
20260507003013 57 155 0.0 2.6 0.00 0.00 0.00 76 1020.7
20260507002509 56 203 0.0 5.2 0.00 0.00 0.00 75 1020.7
20260507002008 57 248 0.0 5.2 0.00 0.00 0.00 75 1020.7
20260507001507 57 97 0.0 5.2 0.00 0.00 0.00 75 1020.7
20260507001001 57 241 0.9 5.2 0.00 0.00 0.00 75 1020.6
20260507000504 57 328 0.9 1.7 0.00 0.00 0.00 75 1020.6
20260507000002 57 199 0.9 4.3 0.00 0.00 0.00 76 1020.7
20260506235502 57 212 0.0 4.3 0.00 0.00 0.00 76 1020.7
20260506235006 57 106 0.0 2.6 0.00 0.00 0.00 75 1020.7
20260506234509 57 282 0.9 4.3 0.00 0.00 0.00 74 1020.7
20260506234005 57 208 0.0 4.3 0.00 0.00 0.00 75 1020.7
20260506233506 56 132 0.9 3.5 0.00 0.00 0.00 75 1020.7
20260506233017 57 160 0.9 3.5 0.00 0.00 0.00 75 1020.8
20260506232504 57 275 0.0 3.5 0.00 0.00 0.00 74 1020.8
20260506232005 57 281 0.0 4.3 0.00 0.00 0.00 75 1020.8
20260506231502 57 213 0.0 4.3 0.00 0.00 0.00 74 1020.9
20260506231001 57 110 0.9 2.6 0.00 0.00 0.00 75 1020.9
20260506230504 57 186 0.9 2.6 0.00 0.00 0.00 75 1020.9
20260506230006 57 284 0.9 3.5 0.00 0.00 0.00 74 1020.9
20260506225502 57 205 0.9 4.3 0.00 0.00 0.00 74 1020.8
20260506225002 57 242 0.9 4.3 0.00 0.00 0.00 74 1020.9
20260506224506 57 204 1.7 4.3 0.00 0.00 0.00 74 1020.9
20260506224005 57 196 0.9 2.6 0.00 0.00 0.00 73 1020.9
20260506223506 57 182 0.9 3.5 0.00 0.00 0.00 74 1020.9
20260506223010 57 211 0.9 3.5 0.00 0.00 0.00 74 1020.9
20260506222507 56 315 0.9 4.3 0.00 0.00 0.00 74 1020.8
20260506222010 56 202 0.9 6.1 0.00 0.00 0.00 75 1021.0
20260506221517 56 189 0.9 6.1 0.00 0.00 0.00 74 1021.1
20260506221010 56 308 0.9 4.3 0.00 0.00 0.00 74 1021.2
20260506220507 57 217 1.7 7.0 0.00 0.00 0.00 74 1021.1
20260506220003 56 239 1.7 8.7 0.00 0.00 0.00 75 1021.1
20260506215504 56 182 0.9 8.7 0.00 0.00 0.00 76 1021.1
20260506215006 56 311 1.7 5.2 0.00 0.00 0.00 76 1021.1
20260506214507 56 179 0.9 5.2 0.00 0.00 0.00 76 1021.1
20260506214003 56 192 0.9 4.3 0.00 0.00 0.00 75 1021.2
20260506213505 56 202 0.9 4.3 0.00 0.00 0.00 75 1021.2
20260506213011 56 154 0.0 3.5 0.00 0.00 0.00 76 1021.1
20260506212506 56 199 0.9 4.3 0.00 0.00 0.00 75 1021.1
20260506212009 56 209 0.9 4.3 0.00 0.00 0.00 77 1021.1
20260506211512 56 180 0.0 2.6 0.00 0.00 0.00 75 1021.1
20260506211006 56 180 0.0 2.6 0.00 0.00 0.00 76 1021.1
20260506210515 56 229 0.0 3.5 0.00 0.00 0.00 77 1021.1
20260506210043 56 209 0.0 3.5 0.00 0.00 0.00 76 1021.1
20260506205509 56 238 0.0 3.5 0.00 0.00 0.00 76 1021.0
20260506205006 56 186 0.9 2.6 0.00 0.00 0.00 76 1021.0
20260506204524 56 183 0.9 4.3 0.00 0.00 0.00 76 1021.0
20260506204004 56 184 0.0 4.3 0.00 0.00 0.00 77 1021.1
20260506203503 56 218 1.7 4.3 0.00 0.00 0.00 77 1021.1
20260506203009 56 24 0.9 2.6 0.00 0.00 0.00 76 1021.0
20260506202503 56 253 0.0 2.6 0.00 0.00 0.00 77 1021.0
20260506202007 56 175 0.9 2.6 0.00 0.00 0.00 76 1021.0
20260506201519 56 229 0.9 3.5 0.00 0.00 0.00 77 1020.9
20260506201007 55 179 0.0 3.5 0.00 0.00 0.00 77 1021.0
20260506200507 56 205 0.0 3.5 0.00 0.00 0.00 78 1020.9
20260506200016 55 101 0.9 3.5 0.00 0.00 0.00 78 1020.9
20260506195507 55 213 0.9 3.5 0.00 0.00 0.00 78 1020.9
20260506195008 55 212 0.9 1.7 0.00 0.00 0.00 78 1020.8
20260506194523 55 165 0.0 3.5 0.00 0.00 0.00 78 1020.8
20260506194008 54 215 0.9 3.5 0.00 0.00 0.00 79 1020.7
20260506193511 54 204 1.7 3.5 0.00 0.00 0.00 79 1020.7
20260506193033 54 117 0.0 3.5 0.00 0.00 0.00 80 1020.7
20260506192503 54 205 0.9 4.3 0.00 0.00 0.00 79 1020.7
20260506192006 54 221 1.7 4.3 0.00 0.00 0.00 80 1020.7
20260506191512 54 221 0.0 3.5 0.00 0.00 0.00 81 1020.7
20260506191004 54 190 0.9 3.5 0.00 0.00 0.00 80 1020.7
20260506190509 54 195 0.9 3.5 0.00 0.00 0.00 81 1020.7
20260506190017 54 188 1.7 3.5 0.00 0.00 0.00 81 1020.7
20260506185510 54 161 0.9 3.5 0.00 0.00 0.00 82 1020.7
20260506185007 54 132 0.9 2.6 0.00 0.00 0.00 81 1020.7
20260506184527 54 199 0.0 4.3 0.00 0.00 0.00 82 1020.7
20260506184009 54 198 0.0 4.3 0.00 0.00 0.00 84 1020.7
20260506183512 53 209 0.9 3.5 0.00 0.00 0.00 83 1020.7
20260506183024 53 197 0.0 2.6 0.00 0.00 0.00 83 1020.7
20260506182511 54 190 0.0 1.7 0.00 0.00 0.00 84 1020.8
20260506182009 54 198 0.9 2.6 0.00 0.00 0.00 85 1020.8
20260506181536 53 190 0.9 2.6 0.00 0.00 0.00 84 1020.6
20260506181004 53 173 0.9 2.6 0.00 0.00 0.00 85 1020.5
20260506180504 53 167 0.0 5.2 0.00 0.00 0.00 86 1020.5
20260506180014 53 198 0.9 5.2 0.00 0.00 0.00 87 1020.5
20260506175505 53 191 0.9 3.5 0.00 0.00 0.00 86 1020.6
20260506175005 53 223 0.0 2.6 0.00 0.00 0.00 87 1020.5
20260506174519 53 228 0.0 3.5 0.00 0.00 0.00 88 1020.5
20260506174006 52 209 1.7 5.2 0.00 0.00 0.00 88 1020.5
20260506173509 52 201 0.9 5.2 0.00 0.00 0.00 88 1020.7
20260506173020 53 201 0.0 5.2 0.00 0.00 0.00 88 1020.5
20260506172512 53 220 0.9 4.3 0.00 0.00 0.00 88 1020.6
20260506172011 53 230 0.0 2.6 0.00 0.00 0.00 89 1020.6
20260506171529 52 188 0.0 3.5 0.00 0.00 0.00 89 1020.7
20260506171011 52 180 0.9 4.3 0.00 0.00 0.00 89 1020.6
20260506170512 52 170 0.0 4.3 0.00 0.00 0.00 90 1020.5
20260506170029 52 215 1.7 4.3 0.00 0.00 0.00 89 1020.5
20260506165505 52 198 0.0 4.3 0.00 0.00 0.00 90 1020.5
20260506165004 52 176 0.9 2.6 0.00 0.00 0.00 91 1020.5
20260506164535 52 184 0.9 4.3 0.00 0.00 0.00 91 1020.4
20260506164005 52 159 0.0 4.3 0.00 0.00 0.00 92 1020.3
20260506163507 52 200 1.7 4.3 0.00 0.00 0.00 92 1020.2
20260506163022 51 192 0.0 2.6 0.00 0.00 0.00 92 1020.1
20260506162510 51 200 0.9 2.6 0.00 0.00 0.00 92 1020.0
20260506162008 51 168 0.9 5.2 0.00 0.00 0.00 92 1020.0
20260506161524 51 187 1.7 4.3 0.00 0.00 0.00 92 1019.9
20260506161010 51 207 0.0 4.3 0.00 0.00 0.00 92 1019.8
20260506160510 51 200 0.9 2.6 0.00 0.00 0.00 92 1019.9
20260506160030 51 191 0.0 4.3 0.00 0.00 0.00 92 1020.0
20260506155509 51 213 0.0 3.5 0.00 0.00 0.00 92 1020.0
20260506155010 51 190 1.7 3.5 0.00 0.00 0.00 92 1020.1
20260506154529 51 216 0.0 1.7 0.00 0.00 0.00 92 1020.2
20260506154008 51 245 0.0 1.7 0.00 0.00 0.00 92 1020.3
20260506153511 51 88 0.0 1.7 0.00 0.00 0.00 92 1020.3
20260506153014 51 209 0.0 1.7 0.00 0.00 0.00 92 1020.2
20260506152508 51 177 0.9 1.7 0.00 0.00 0.00 91 1020.1
20260506152009 51 191 0.0 1.7 0.00 0.00 0.00 92 1020.0
20260506151502 51 190 0.0 3.5 0.00 0.00 0.00 92 1019.8
20260506151001 51 195 0.9 4.3 0.00 0.00 0.00 91 1019.7
20260506150502 51 196 1.7 4.3 0.00 0.00 0.00 91 1019.8
20260506150005 51 218 0.0 3.5 0.00 0.00 0.00 91 1019.9
20260506145505 51 184 0.0 1.7 0.00 0.00 0.00 92 1019.9
20260506145008 51 302 0.0 1.7 0.00 0.00 0.00 92 1020.0
20260506144521 51 36 0.0 1.7 0.00 0.00 0.00 92 1020.0
20260506144008 51 276 0.0 4.3 0.00 0.00 0.00 91 1020.0
20260506143506 51 255 0.0 4.3 0.00 0.00 0.00 91 1019.9
20260506143017 51 252 0.0 2.6 0.00 0.00 0.00 91 1019.7
20260506142505 51 222 0.0 2.6 0.00 0.00 0.00 91 1019.8
20260506142009 51 211 0.0 4.3 0.00 0.00 0.00 91 1019.6
20260506141528 51 200 0.9 4.3 0.00 0.00 0.00 91 1019.5
20260506141015 51 201 0.9 1.7 0.00 0.00 0.00 90 1019.7
20260506140502 51 196 0.0 1.7 0.00 0.00 0.00 90 1019.7
20260506140006 51 188 0.0 2.6 0.00 0.00 0.00 90 1019.7
20260506135503 51 180 0.0 4.3 0.00 0.00 0.00 90 1019.8
20260506135003 51 180 0.0 4.3 0.00 0.00 0.00 90 1019.6
20260506134508 52 105 0.9 1.7 0.00 0.00 0.00 90 1019.5
20260506134003 52 94 0.0 1.7 0.00 0.00 0.00 90 1019.7
20260506133504 52 249 0.0 1.7 0.00 0.00 0.00 90 1019.6
20260506133016 52 209 0.0 2.6 0.00 0.00 0.00 89 1019.4
20260506132507 52 198 0.0 2.6 0.00 0.00 0.00 89 1019.5
20260506132007 52 201 0.0 1.7 0.00 0.00 0.00 89 1019.5
20260506131520 52 199 0.0 4.3 0.00 0.00 0.00 89 1019.3
20260506131006 51 185 0.9 4.3 0.00 0.00 0.00 89 1019.0
20260506130508 52 181 0.9 4.3 0.00 0.00 0.00 89 1019.2
20260506130024 52 200 0.0 2.6 0.00 0.00 0.00 89 1019.2
20260506125510 52 217 0.0 1.7 0.00 0.00 0.00 89 1019.2
20260506125002 52 202 0.0 1.7 0.00 0.00 0.00 89 1019.2
20260506124508 52 202 0.9 1.7 0.00 0.00 0.00 89 1019.1
20260506124006 52 157 0.0 1.7 0.00 0.00 0.00 89 1019.0
20260506123503 52 157 0.0 0.9 0.00 0.00 0.00 89 1019.0
20260506123014 52 185 0.0 0.0 0.00 0.00 0.00 89 1019.0
20260506122505 52 185 0.0 0.0 0.00 0.00 0.00 89 1019.0
20260506122012 52 185 0.0 0.0 0.00 0.00 0.00 89 1018.9
20260506121519 52 179 0.0 0.9 0.00 0.00 0.00 89 1018.8
20260506121009 52 194 0.0 1.7 0.00 0.00 0.00 89 1018.8
20260506120507 52 202 0.0 1.7 0.00 0.00 0.00 89 1018.8
20260506120043 52 186 0.9 3.5 0.00 0.00 0.00 89 1018.8
20260506115512 52 246 0.0 3.5 0.00 0.00 0.00 89 1018.7
20260506115007 52 199 0.0 1.7 0.00 0.00 0.00 89 1018.7
20260506114526 52 200 0.0 1.7 0.00 0.00 0.00 89 1018.6
20260506114012 52 174 0.0 1.7 0.00 0.00 0.00 89 1018.6
20260506113510 52 184 0.0 0.0 0.00 0.00 0.00 89 1018.6
20260506113012 52 199 0.0 1.7 0.00 0.00 0.00 89 1018.6
20260506112504 52 199 0.0 1.7 0.00 0.00 0.00 88 1018.6
20260506112007 52 185 0.0 1.7 0.00 0.00 0.00 88 1018.6
20260506111515 52 180 0.9 1.7 0.00 0.00 0.00 88 1018.6
20260506111003 52 194 0.0 1.7 0.00 0.00 0.00 88 1018.6
20260506110507 52 194 0.0 1.7 0.00 0.00 0.00 88 1018.6
20260506110024 52 212 0.9 1.7 0.00 0.00 0.00 88 1018.5
20260506105508 52 229 0.0 1.7 0.00 0.00 0.00 88 1018.5
20260506105006 52 213 0.0 2.6 0.00 0.00 0.00 88 1018.4
20260506104536 52 213 0.9 4.3 0.00 0.00 0.00 88 1018.4
20260506104011 52 216 1.7 4.3 0.00 0.00 0.00 87 1018.4
20260506103508 52 202 0.9 2.6 0.00 0.00 0.00 88 1018.3
20260506103038 52 214 0.9 2.6 0.00 0.00 0.00 87 1018.3
20260506102516 52 196 0.0 3.5 0.00 0.00 0.00 88 1018.3
20260506102007 52 196 0.0 3.5 0.00 0.00 0.00 88 1018.3
20260506101513 52 198 0.9 2.6 0.00 0.00 0.00 87 1018.2
20260506101009 52 214 0.0 0.9 0.00 0.00 0.00 88 1018.2
20260506100506 52 214 0.0 0.9 0.00 0.00 0.00 88 1018.1
20260506100015 52 227 0.0 2.6 0.00 0.00 0.00 88 1018.1
20260506095505 52 227 0.0 2.6 0.00 0.00 0.00 88 1018.1
20260506095009 52 227 0.0 2.6 0.00 0.00 0.00 87 1018.0
20260506094520 52 215 0.0 0.0 0.00 0.00 0.00 88 1018.0
20260506094012 52 215 0.0 0.0 0.00 0.00 0.00 88 1018.0
20260506093510 52 215 0.0 1.7 0.00 0.00 0.00 88 1018.1
20260506093024 52 215 0.0 3.5 0.00 0.00 0.00 88 1018.0
20260506092508 52 216 0.9 3.5 0.00 0.00 0.00 88 1018.0
20260506092013 52 202 0.0 0.9 0.00 0.00 0.00 88 1018.0
20260506091528 52 240 0.0 1.7 0.00 0.00 0.00 88 1018.0
20260506091007 52 217 0.0 1.7 0.00 0.00 0.00 88 1017.9
20260506090503 52 221 0.0 1.7 0.00 0.00 0.00 88 1017.9
20260506090015 52 208 0.0 0.0 0.00 0.00 0.00 88 1017.9
20260506085507 52 208 0.0 0.0 0.00 0.00 0.00 88 1017.8
20260506085004 52 208 0.0 0.0 0.00 0.00 0.00 88 1017.8
20260506084539 52 208 0.0 1.7 0.00 0.00 0.00 88 1017.7
20260506084012 52 208 0.0 2.6 0.00 0.00 0.00 88 1017.7
20260506083508 52 207 0.0 3.5 0.00 0.00 0.00 87 1017.6
20260506082500 52 195 0.0 3.5 0.00 0.00 0.00 88 1017.6
20260506082004 52 186 0.9 4.3 0.00 0.00 0.00 88 1017.6
20260506081508 51 203 0.9 4.3 0.00 0.00 0.00 88 1017.6
20260506081008 51 240 0.9 3.5 0.00 0.00 0.00 88 1017.6
20260506080504 51 198 0.0 3.5 0.00 0.00 0.00 88 1017.5
20260506073505 52 208 0.0 1.7 0.00 0.00 0.00 88 1017.3
20260506073002 52 209 0.0 1.7 0.00 0.00 0.00 88 1017.4
20260506072502 52 209 0.0 1.7 0.00 0.00 0.00 88 1017.3
20260506072001 52 209 0.0 1.7 0.00 0.00 0.00 87 1017.3
20260506071505 52 209 0.0 1.7 0.00 0.00 0.00 87 1017.3
20260506071004 52 189 0.0 0.0 0.00 0.00 0.00 87 1017.2
20260506070504 52 184 0.0 0.0 0.00 0.00 0.00 87 1017.1
20260506062508 53 193 0.0 0.0 0.00 0.00 0.00 87 1016.8
20260506062010 53 195 0.0 0.9 0.00 0.00 0.00 86 1016.7
20260506061504 53 196 0.0 1.7 0.00 0.00 0.00 87 1016.6
20260506061004 53 200 0.0 1.7 0.00 0.00 0.00 86 1016.5